Year,Month,Day,Hour,Minute,Value (Times are PST for temperature in C)
2018,06,16,00,00,13.50
2018,06,16,00,01,13.50
2018,06,16,00,02,13.50
2018,06,16,00,03,13.50
2018,06,16,00,04,13.50
2018,06,16,00,05,13.50
2018,06,16,00,06,13.50
2018,06,16,00,07,13.50
2018,06,16,00,08,13.50
2018,06,16,00,09,13.50
2018,06,16,00,10,13.60
2018,06,16,00,11,13.60
2018,06,16,00,12,13.60
2018,06,16,00,13,13.60
2018,06,16,00,14,13.60
2018,06,16,00,15,13.60
2018,06,16,00,16,13.60
2018,06,16,00,17,13.60
2018,06,16,00,18,13.60
2018,06,16,00,19,13.60
2018,06,16,00,20,13.60
2018,06,16,00,21,13.60
2018,06,16,00,22,13.60
2018,06,16,00,23,13.60
2018,06,16,00,24,13.60
2018,06,16,00,25,13.70
2018,06,16,00,26,13.70
2018,06,16,00,27,13.70
2018,06,16,00,28,13.70
2018,06,16,00,29,13.70
2018,06,16,00,30,13.70
2018,06,16,00,31,13.70
2018,06,16,00,32,13.70
2018,06,16,00,33,13.70
2018,06,16,00,34,13.70
2018,06,16,00,35,13.70
2018,06,16,00,36,13.70
2018,06,16,00,37,13.70
2018,06,16,00,38,13.70
2018,06,16,00,39,13.70
2018,06,16,00,40,13.60
2018,06,16,00,41,13.60
2018,06,16,00,42,13.60
2018,06,16,00,43,13.60
2018,06,16,00,44,13.60
2018,06,16,00,45,13.60
2018,06,16,00,46,13.60
2018,06,16,00,47,13.60
2018,06,16,00,48,13.60
2018,06,16,00,49,13.60
2018,06,16,00,50,13.60
2018,06,16,00,51,13.50
2018,06,16,00,52,13.50
2018,06,16,00,53,13.50
2018,06,16,00,54,13.50
2018,06,16,00,55,13.40
2018,06,16,00,56,13.40
2018,06,16,00,57,13.40
2018,06,16,00,58,13.30
2018,06,16,00,59,13.30
2018,06,16,01,00,13.30
2018,06,16,01,01,13.30
2018,06,16,01,02,13.30
2018,06,16,01,03,13.30
2018,06,16,01,04,13.30
2018,06,16,01,05,13.30
2018,06,16,01,06,13.30
2018,06,16,01,07,13.30
2018,06,16,01,08,13.30
2018,06,16,01,09,13.30
2018,06,16,01,10,13.30
2018,06,16,01,11,13.30
2018,06,16,01,12,13.30
2018,06,16,01,13,13.30
2018,06,16,01,14,13.30
2018,06,16,01,15,13.30
2018,06,16,01,16,13.30
2018,06,16,01,17,13.30
2018,06,16,01,18,13.30
2018,06,16,01,19,13.30
2018,06,16,01,20,13.30
2018,06,16,01,21,13.30
2018,06,16,01,22,13.30
2018,06,16,01,23,13.30
2018,06,16,01,24,13.30
2018,06,16,01,25,13.30
2018,06,16,01,26,13.40
2018,06,16,01,27,13.40
2018,06,16,01,28,13.40
2018,06,16,01,29,13.40
2018,06,16,01,30,13.40
2018,06,16,01,31,13.50
2018,06,16,01,32,13.40
2018,06,16,01,33,13.40
2018,06,16,01,34,13.40
2018,06,16,01,35,13.40
2018,06,16,01,36,13.40
2018,06,16,01,37,13.40
2018,06,16,01,38,13.40
2018,06,16,01,39,13.50
2018,06,16,01,40,13.50
2018,06,16,01,41,13.50
2018,06,16,01,42,13.50
2018,06,16,01,43,13.50
2018,06,16,01,44,13.50
2018,06,16,01,45,13.60
2018,06,16,01,46,13.60
2018,06,16,01,47,13.60
2018,06,16,01,48,13.60
2018,06,16,01,49,13.70
2018,06,16,01,50,13.70
2018,06,16,01,51,13.70
2018,06,16,01,52,13.70
2018,06,16,01,53,13.60
2018,06,16,01,54,13.60
2018,06,16,01,55,13.60
2018,06,16,01,56,13.50
2018,06,16,01,57,13.50
2018,06,16,01,58,13.50
2018,06,16,01,59,13.50
2018,06,16,02,00,13.40
2018,06,16,02,01,13.40
2018,06,16,02,02,13.40
2018,06,16,02,03,13.40
2018,06,16,02,04,13.30
2018,06,16,02,05,13.30
2018,06,16,02,06,13.30
2018,06,16,02,07,13.30
2018,06,16,02,08,13.30
2018,06,16,02,09,13.30
2018,06,16,02,10,13.30
2018,06,16,02,11,13.30
2018,06,16,02,12,13.30
2018,06,16,02,13,13.30
2018,06,16,02,14,13.30
2018,06,16,02,15,13.30
2018,06,16,02,16,13.30
2018,06,16,02,17,13.30
2018,06,16,02,18,13.30
2018,06,16,02,19,13.30
2018,06,16,02,20,13.30
2018,06,16,02,21,13.30
2018,06,16,02,22,13.30
2018,06,16,02,23,13.30
2018,06,16,02,24,13.30
2018,06,16,02,25,13.30
2018,06,16,02,26,13.30
2018,06,16,02,27,13.30
2018,06,16,02,28,13.30
2018,06,16,02,29,13.30
2018,06,16,02,30,13.30
2018,06,16,02,31,13.30
2018,06,16,02,32,13.30
2018,06,16,02,33,13.30
2018,06,16,02,34,13.30
2018,06,16,02,35,13.30
2018,06,16,02,36,13.30
2018,06,16,02,37,13.30
2018,06,16,02,38,13.30
2018,06,16,02,39,13.30
2018,06,16,02,40,13.30
2018,06,16,02,41,13.30
2018,06,16,02,42,13.30
2018,06,16,02,43,13.30
2018,06,16,02,44,13.30
2018,06,16,02,45,13.30
2018,06,16,02,46,13.30
2018,06,16,02,47,13.30
2018,06,16,02,48,13.40
2018,06,16,02,49,13.40
2018,06,16,02,50,13.40
2018,06,16,02,51,13.40
2018,06,16,02,52,13.40
2018,06,16,02,53,13.40
2018,06,16,02,54,13.40
2018,06,16,02,55,13.40
2018,06,16,02,56,13.40
2018,06,16,02,57,13.40
2018,06,16,02,58,13.40
2018,06,16,02,59,13.40
2018,06,16,03,00,13.50
2018,06,16,03,01,13.50
2018,06,16,03,02,13.50
2018,06,16,03,03,13.50
2018,06,16,03,04,13.50
2018,06,16,03,05,13.50
2018,06,16,03,06,13.50
2018,06,16,03,07,13.50
2018,06,16,03,08,13.60
2018,06,16,03,09,13.60
2018,06,16,03,10,13.60
2018,06,16,03,11,13.60
2018,06,16,03,12,13.60
2018,06,16,03,13,13.60
2018,06,16,03,14,13.60
2018,06,16,03,15,13.60
2018,06,16,03,16,13.60
2018,06,16,03,17,13.60
2018,06,16,03,18,13.60
2018,06,16,03,19,13.60
2018,06,16,03,20,13.60
2018,06,16,03,21,13.50
2018,06,16,03,22,13.50
2018,06,16,03,23,13.50
2018,06,16,03,24,13.50
2018,06,16,03,25,13.50
2018,06,16,03,26,13.50
2018,06,16,03,27,13.50
2018,06,16,03,28,13.50
2018,06,16,03,29,13.50
2018,06,16,03,30,13.50
2018,06,16,03,31,13.50
2018,06,16,03,32,13.50
2018,06,16,03,33,13.50
2018,06,16,03,34,13.50
2018,06,16,03,35,13.50
2018,06,16,03,36,13.50
2018,06,16,03,37,13.50
2018,06,16,03,38,13.50
2018,06,16,03,39,13.50
2018,06,16,03,40,13.50
2018,06,16,03,41,13.50
2018,06,16,03,42,13.50
2018,06,16,03,43,13.50
2018,06,16,03,44,13.50
2018,06,16,03,45,13.50
2018,06,16,03,46,13.50
2018,06,16,03,47,13.50
2018,06,16,03,48,13.50
2018,06,16,03,49,13.50
2018,06,16,03,50,13.50
2018,06,16,03,51,13.50
2018,06,16,03,52,13.60
2018,06,16,03,53,13.60
2018,06,16,03,54,13.60
2018,06,16,03,55,13.60
2018,06,16,03,56,13.60
2018,06,16,03,57,13.60
2018,06,16,03,58,13.60
2018,06,16,03,59,13.60
2018,06,16,04,00,13.60
2018,06,16,04,01,13.60
2018,06,16,04,02,13.60
2018,06,16,04,03,13.60
2018,06,16,04,04,13.60
2018,06,16,04,05,13.60
2018,06,16,04,06,13.60
2018,06,16,04,07,13.60
2018,06,16,04,08,13.70
2018,06,16,04,09,13.70
2018,06,16,04,10,13.60
2018,06,16,04,11,13.60
2018,06,16,04,12,13.60
2018,06,16,04,13,13.60
2018,06,16,04,14,13.60
2018,06,16,04,15,13.60
2018,06,16,04,16,13.60
2018,06,16,04,17,13.60
2018,06,16,04,18,13.60
2018,06,16,04,19,13.60
2018,06,16,04,20,13.60
2018,06,16,04,21,13.60
2018,06,16,04,22,13.60
2018,06,16,04,23,13.60
2018,06,16,04,24,13.60
2018,06,16,04,25,13.50
2018,06,16,04,26,13.50
2018,06,16,04,27,13.50
2018,06,16,04,28,13.50
2018,06,16,04,29,13.50
2018,06,16,04,30,13.50
2018,06,16,04,31,13.50
2018,06,16,04,32,13.60
2018,06,16,04,33,13.60
2018,06,16,04,34,13.60
2018,06,16,04,35,13.60
2018,06,16,04,36,13.60
2018,06,16,04,37,13.60
2018,06,16,04,38,13.60
2018,06,16,04,39,13.60
2018,06,16,04,40,13.60
2018,06,16,04,41,13.60
2018,06,16,04,42,13.60
2018,06,16,04,43,13.60
2018,06,16,04,44,13.60
2018,06,16,04,45,13.60
2018,06,16,04,46,13.60
2018,06,16,04,47,13.60
2018,06,16,04,48,13.60
2018,06,16,04,49,13.60
2018,06,16,04,50,13.60
2018,06,16,04,51,13.60
2018,06,16,04,52,13.60
2018,06,16,04,53,13.50
2018,06,16,04,54,13.50
2018,06,16,04,55,13.50
2018,06,16,04,56,13.50
2018,06,16,04,57,13.50
2018,06,16,04,58,13.50
2018,06,16,04,59,13.50
2018,06,16,05,00,13.50
2018,06,16,05,01,13.50
2018,06,16,05,02,13.50
2018,06,16,05,03,13.40
2018,06,16,05,04,13.40
2018,06,16,05,05,13.40
2018,06,16,05,06,13.40
2018,06,16,05,07,13.30
2018,06,16,05,08,13.30
2018,06,16,05,09,13.30
2018,06,16,05,10,13.30
2018,06,16,05,11,13.30
2018,06,16,05,12,13.30
2018,06,16,05,13,13.20
2018,06,16,05,14,13.20
2018,06,16,05,15,13.20
2018,06,16,05,16,13.20
2018,06,16,05,17,13.10
2018,06,16,05,18,13.10
2018,06,16,05,19,13.10
2018,06,16,05,20,13.10
2018,06,16,05,21,13.00
2018,06,16,05,22,13.00
2018,06,16,05,23,13.00
2018,06,16,05,24,13.00
2018,06,16,05,25,13.00
2018,06,16,05,26,12.90
2018,06,16,05,27,12.90
2018,06,16,05,28,12.90
2018,06,16,05,29,12.90
2018,06,16,05,30,13.00
2018,06,16,05,31,13.00
2018,06,16,05,32,13.00
2018,06,16,05,33,13.00
2018,06,16,05,34,13.00
2018,06,16,05,35,13.00
2018,06,16,05,36,13.00
2018,06,16,05,37,13.00
2018,06,16,05,38,13.10
2018,06,16,05,39,13.10
2018,06,16,05,40,13.10
2018,06,16,05,41,13.10
2018,06,16,05,42,13.10
2018,06,16,05,43,13.00
2018,06,16,05,44,13.00
2018,06,16,05,45,13.00
2018,06,16,05,46,13.00
2018,06,16,05,47,13.00
2018,06,16,05,48,13.00
2018,06,16,05,49,13.00
2018,06,16,05,50,13.00
2018,06,16,05,51,13.00
2018,06,16,05,52,13.00
2018,06,16,05,53,13.00
2018,06,16,05,54,13.00
2018,06,16,05,55,13.00
2018,06,16,05,56,13.10
2018,06,16,05,57,13.10
2018,06,16,05,58,13.10
2018,06,16,05,59,13.10
2018,06,16,06,00,13.10
2018,06,16,06,01,13.20
2018,06,16,06,02,13.20
2018,06,16,06,03,13.20
2018,06,16,06,04,13.20
2018,06,16,06,05,13.20
2018,06,16,06,06,13.30
2018,06,16,06,07,13.30
2018,06,16,06,08,13.30
2018,06,16,06,09,13.30
2018,06,16,06,10,13.30
2018,06,16,06,11,13.30
2018,06,16,06,12,13.30
2018,06,16,06,13,13.40
2018,06,16,06,14,13.40
2018,06,16,06,15,13.40
2018,06,16,06,16,13.50
2018,06,16,06,17,13.50
2018,06,16,06,18,13.50
2018,06,16,06,19,13.60
2018,06,16,06,20,13.60
2018,06,16,06,21,13.60
2018,06,16,06,22,13.60
2018,06,16,06,23,13.70
2018,06,16,06,24,13.70
2018,06,16,06,25,13.70
2018,06,16,06,26,13.70
2018,06,16,06,27,13.70
2018,06,16,06,28,13.70
2018,06,16,06,29,13.80
2018,06,16,06,30,13.80
2018,06,16,06,31,13.80
2018,06,16,06,32,13.80
2018,06,16,06,33,13.80
2018,06,16,06,34,13.90
2018,06,16,06,35,13.90
2018,06,16,06,36,13.90
2018,06,16,06,37,13.90
2018,06,16,06,38,14.00
2018,06,16,06,39,14.00
2018,06,16,06,40,14.00
2018,06,16,06,41,14.10
2018,06,16,06,42,14.10
2018,06,16,06,43,14.10
2018,06,16,06,44,14.10
2018,06,16,06,45,14.20
2018,06,16,06,46,14.20
2018,06,16,06,47,14.20
2018,06,16,06,48,14.20
2018,06,16,06,49,14.30
2018,06,16,06,50,14.30
2018,06,16,06,51,14.40
2018,06,16,06,52,14.40
2018,06,16,06,53,14.50
2018,06,16,06,54,14.50
2018,06,16,06,55,14.50
2018,06,16,06,56,14.50
2018,06,16,06,57,14.50
2018,06,16,06,58,14.50
2018,06,16,06,59,14.50
2018,06,16,07,00,14.50
2018,06,16,07,01,14.60
2018,06,16,07,02,14.60
2018,06,16,07,03,14.60
2018,06,16,07,04,14.70
2018,06,16,07,05,14.70
2018,06,16,07,06,14.80
2018,06,16,07,07,14.80
2018,06,16,07,08,14.80
2018,06,16,07,09,14.90
2018,06,16,07,10,15.00
2018,06,16,07,11,15.10
2018,06,16,07,12,15.20
2018,06,16,07,13,15.30
2018,06,16,07,14,15.30
2018,06,16,07,15,15.30
2018,06,16,07,16,15.40
2018,06,16,07,17,15.40
2018,06,16,07,18,15.40
2018,06,16,07,19,15.40
2018,06,16,07,20,15.40
2018,06,16,07,21,15.40
2018,06,16,07,22,15.40
2018,06,16,07,23,15.40
2018,06,16,07,24,15.30
2018,06,16,07,25,15.30
2018,06,16,07,26,15.30
2018,06,16,07,27,15.30
2018,06,16,07,28,15.30
2018,06,16,07,29,15.30
2018,06,16,07,30,15.40
2018,06,16,07,31,15.40
2018,06,16,07,32,15.40
2018,06,16,07,33,15.50
2018,06,16,07,34,15.50
2018,06,16,07,35,15.60
2018,06,16,07,36,15.60
2018,06,16,07,37,15.70
2018,06,16,07,38,15.80
2018,06,16,07,39,15.80
2018,06,16,07,40,15.80
2018,06,16,07,41,15.90
2018,06,16,07,42,15.90
2018,06,16,07,43,16.00
2018,06,16,07,44,16.10
2018,06,16,07,45,16.10
2018,06,16,07,46,16.10
2018,06,16,07,47,16.20
2018,06,16,07,48,16.30
2018,06,16,07,49,16.40
2018,06,16,07,50,16.40
2018,06,16,07,51,16.50
2018,06,16,07,52,16.60
2018,06,16,07,53,16.60
2018,06,16,07,54,16.60
2018,06,16,07,55,16.50
2018,06,16,07,56,16.30
2018,06,16,07,57,16.20
2018,06,16,07,58,16.20
2018,06,16,07,59,16.10
2018,06,16,08,00,16.10
2018,06,16,08,01,16.20
2018,06,16,08,02,16.20
2018,06,16,08,03,16.20
2018,06,16,08,04,16.10
2018,06,16,08,05,16.10
2018,06,16,08,06,15.90
2018,06,16,08,07,15.90
2018,06,16,08,08,15.80
2018,06,16,08,09,15.80
2018,06,16,08,10,15.80
2018,06,16,08,11,15.90
2018,06,16,08,12,16.00
2018,06,16,08,13,16.10
2018,06,16,08,14,16.10
2018,06,16,08,15,16.00
2018,06,16,08,16,16.10
2018,06,16,08,17,16.10
2018,06,16,08,18,16.10
2018,06,16,08,19,16.10
2018,06,16,08,20,16.10
2018,06,16,08,21,16.20
2018,06,16,08,22,16.20
2018,06,16,08,23,16.20
2018,06,16,08,24,16.30
2018,06,16,08,25,16.30
2018,06,16,08,26,16.40
2018,06,16,08,27,16.40
2018,06,16,08,28,16.40
2018,06,16,08,29,16.40
2018,06,16,08,30,16.40
2018,06,16,08,31,16.40
2018,06,16,08,32,16.40
2018,06,16,08,33,16.40
2018,06,16,08,34,16.40
2018,06,16,08,35,16.40
2018,06,16,08,36,16.30
2018,06,16,08,37,16.30
2018,06,16,08,38,16.30
2018,06,16,08,39,16.30
2018,06,16,08,40,16.30
2018,06,16,08,41,16.30
2018,06,16,08,42,16.30
2018,06,16,08,43,16.40
2018,06,16,08,44,16.40
2018,06,16,08,45,16.50
2018,06,16,08,46,16.60
2018,06,16,08,47,16.70
2018,06,16,08,48,16.80
2018,06,16,08,49,16.80
2018,06,16,08,50,16.80
2018,06,16,08,51,16.80
2018,06,16,08,52,16.80
2018,06,16,08,53,16.80
2018,06,16,08,54,16.80
2018,06,16,08,55,16.80
2018,06,16,08,56,16.80
2018,06,16,08,57,16.80
2018,06,16,08,58,16.70
2018,06,16,08,59,16.60
2018,06,16,09,00,16.60
2018,06,16,09,01,16.50
2018,06,16,09,02,16.40
2018,06,16,09,03,16.40
2018,06,16,09,04,16.40
2018,06,16,09,05,16.40
2018,06,16,09,06,16.40
2018,06,16,09,07,16.40
2018,06,16,09,08,16.40
2018,06,16,09,09,16.60
2018,06,16,09,10,16.60
2018,06,16,09,11,16.60
2018,06,16,09,12,16.70
2018,06,16,09,13,16.70
2018,06,16,09,14,16.80
2018,06,16,09,15,16.90
2018,06,16,09,16,17.00
2018,06,16,09,17,17.00
2018,06,16,09,18,17.10
2018,06,16,09,19,17.10
2018,06,16,09,20,17.20
2018,06,16,09,21,17.30
2018,06,16,09,22,17.30
2018,06,16,09,23,17.40
2018,06,16,09,24,17.50
2018,06,16,09,25,17.50
2018,06,16,09,26,17.60
2018,06,16,09,27,17.60
2018,06,16,09,28,17.60
2018,06,16,09,29,17.70
2018,06,16,09,30,17.60
2018,06,16,09,31,17.60
2018,06,16,09,32,17.60
2018,06,16,09,33,17.50
2018,06,16,09,34,17.50
2018,06,16,09,35,17.40
2018,06,16,09,36,17.30
2018,06,16,09,37,17.30
2018,06,16,09,38,17.30
2018,06,16,09,39,17.30
2018,06,16,09,40,17.30
2018,06,16,09,41,17.30
2018,06,16,09,42,17.40
2018,06,16,09,43,17.40
2018,06,16,09,44,17.40
2018,06,16,09,45,17.40
2018,06,16,09,46,17.40
2018,06,16,09,47,17.50
2018,06,16,09,48,17.50
2018,06,16,09,49,17.50
2018,06,16,09,50,17.50
2018,06,16,09,51,17.50
2018,06,16,09,52,17.60
2018,06,16,09,53,17.60
2018,06,16,09,54,17.70
2018,06,16,09,55,17.70
2018,06,16,09,56,17.70
2018,06,16,09,57,17.80
2018,06,16,09,58,17.90
2018,06,16,09,59,17.80
2018,06,16,10,00,17.80
2018,06,16,10,01,17.90
2018,06,16,10,02,17.90
2018,06,16,10,03,17.90
2018,06,16,10,04,17.90
2018,06,16,10,05,17.90
2018,06,16,10,06,18.00
2018,06,16,10,07,18.10
2018,06,16,10,08,18.10
2018,06,16,10,09,18.20
2018,06,16,10,10,18.20
2018,06,16,10,11,18.20
2018,06,16,10,12,18.20
2018,06,16,10,13,18.20
2018,06,16,10,14,18.20
2018,06,16,10,15,18.20
2018,06,16,10,16,18.20
2018,06,16,10,17,18.20
2018,06,16,10,18,18.20
2018,06,16,10,19,18.30
2018,06,16,10,20,18.30
2018,06,16,10,21,18.30
2018,06,16,10,22,18.30
2018,06,16,10,23,18.30
2018,06,16,10,24,18.30
2018,06,16,10,25,18.40
2018,06,16,10,26,18.40
2018,06,16,10,27,18.40
2018,06,16,10,28,18.50
2018,06,16,10,29,18.50
2018,06,16,10,30,18.50
2018,06,16,10,31,18.50
2018,06,16,10,32,18.50
2018,06,16,10,33,18.60
2018,06,16,10,34,18.60
2018,06,16,10,35,18.60
2018,06,16,10,36,18.70
2018,06,16,10,37,18.70
2018,06,16,10,38,18.80
2018,06,16,10,39,18.80
2018,06,16,10,40,18.90
2018,06,16,10,41,18.90
2018,06,16,10,42,18.90
2018,06,16,10,43,18.90
2018,06,16,10,44,18.90
2018,06,16,10,45,18.90
2018,06,16,10,46,18.90
2018,06,16,10,47,18.90
2018,06,16,10,48,18.90
2018,06,16,10,49,18.90
2018,06,16,10,50,18.90
2018,06,16,10,51,18.90
2018,06,16,10,52,18.90
2018,06,16,10,53,19.00
2018,06,16,10,54,19.10
2018,06,16,10,55,19.10
2018,06,16,10,56,19.20
2018,06,16,10,57,19.30
2018,06,16,10,58,19.30
2018,06,16,10,59,19.40
2018,06,16,11,00,19.40
2018,06,16,11,01,19.40
2018,06,16,11,02,19.40
2018,06,16,11,03,19.50
2018,06,16,11,04,19.50
2018,06,16,11,05,19.60
2018,06,16,11,06,19.60
2018,06,16,11,07,19.50
2018,06,16,11,08,19.60
2018,06,16,11,09,19.60
2018,06,16,11,10,19.70
2018,06,16,11,11,19.70
2018,06,16,11,12,19.60
2018,06,16,11,13,19.60
2018,06,16,11,14,19.60
2018,06,16,11,15,19.50
2018,06,16,11,16,19.50
2018,06,16,11,17,19.50
2018,06,16,11,18,19.50
2018,06,16,11,19,19.50
2018,06,16,11,20,19.50
2018,06,16,11,21,19.50
2018,06,16,11,22,19.50
2018,06,16,11,23,19.50
2018,06,16,11,24,19.60
2018,06,16,11,25,19.60
2018,06,16,11,26,19.60
2018,06,16,11,27,19.60
2018,06,16,11,28,19.60
2018,06,16,11,29,19.70
2018,06,16,11,30,19.80
2018,06,16,11,31,19.90
2018,06,16,11,32,19.90
2018,06,16,11,33,19.90
2018,06,16,11,34,20.10
2018,06,16,11,35,20.10
2018,06,16,11,36,20.00
2018,06,16,11,37,19.90
2018,06,16,11,38,19.90
2018,06,16,11,39,19.90
2018,06,16,11,40,19.90
2018,06,16,11,41,19.90
2018,06,16,11,42,19.90
2018,06,16,11,43,19.90
2018,06,16,11,44,19.90
2018,06,16,11,45,19.90
2018,06,16,11,46,19.90
2018,06,16,11,47,19.90
2018,06,16,11,48,19.90
2018,06,16,11,49,19.80
2018,06,16,11,50,19.70
2018,06,16,11,51,19.70
2018,06,16,11,52,19.70
2018,06,16,11,53,19.70
2018,06,16,11,54,19.70
2018,06,16,11,55,19.60
2018,06,16,11,56,19.60
2018,06,16,11,57,19.60
2018,06,16,11,58,19.70
2018,06,16,11,59,19.70
2018,06,16,12,00,19.70
2018,06,16,12,01,19.70
2018,06,16,12,02,19.80
2018,06,16,12,03,19.80
2018,06,16,12,04,19.90
2018,06,16,12,05,19.80
2018,06,16,12,06,19.80
2018,06,16,12,07,19.90
2018,06,16,12,08,19.90
2018,06,16,12,09,19.90
2018,06,16,12,10,20.00
2018,06,16,12,11,19.90
2018,06,16,12,12,19.90
2018,06,16,12,13,19.90
2018,06,16,12,14,19.90
2018,06,16,12,15,19.90
2018,06,16,12,16,19.90
2018,06,16,12,17,20.00
2018,06,16,12,18,20.10
2018,06,16,12,19,20.10
2018,06,16,12,20,20.20
2018,06,16,12,21,20.20
2018,06,16,12,22,20.20
2018,06,16,12,23,20.30
2018,06,16,12,24,20.40
2018,06,16,12,25,20.50
2018,06,16,12,26,20.50
2018,06,16,12,27,20.60
2018,06,16,12,28,20.60
2018,06,16,12,29,20.70
2018,06,16,12,30,20.70
2018,06,16,12,31,20.70
2018,06,16,12,32,20.70
2018,06,16,12,33,20.70
2018,06,16,12,34,20.80
2018,06,16,12,35,20.80
2018,06,16,12,36,20.90
2018,06,16,12,37,21.00
2018,06,16,12,38,21.00
2018,06,16,12,39,21.10
2018,06,16,12,40,21.20
2018,06,16,12,41,21.20
2018,06,16,12,42,21.20
2018,06,16,12,43,21.20
2018,06,16,12,44,21.20
2018,06,16,12,45,21.20
2018,06,16,12,46,21.20
2018,06,16,12,47,21.10
2018,06,16,12,48,21.10
2018,06,16,12,49,21.10
2018,06,16,12,50,21.10
2018,06,16,12,51,21.20
2018,06,16,12,52,21.30
2018,06,16,12,53,21.30
2018,06,16,12,54,21.30
2018,06,16,12,55,21.40
2018,06,16,12,56,21.40
2018,06,16,12,57,21.60
2018,06,16,12,58,21.60
2018,06,16,12,59,21.60
2018,06,16,13,00,21.60
2018,06,16,13,01,21.60
2018,06,16,13,02,21.50
2018,06,16,13,03,21.40
2018,06,16,13,04,21.50
2018,06,16,13,05,21.60
2018,06,16,13,06,21.60
2018,06,16,13,07,21.60
2018,06,16,13,08,21.70
2018,06,16,13,09,21.80
2018,06,16,13,10,21.80
2018,06,16,13,11,21.80
2018,06,16,13,12,21.80
2018,06,16,13,13,21.80
2018,06,16,13,14,21.80
2018,06,16,13,15,21.80
2018,06,16,13,16,21.90
2018,06,16,13,17,21.90
2018,06,16,13,18,21.80
2018,06,16,13,19,21.80
2018,06,16,13,20,21.80
2018,06,16,13,21,21.70
2018,06,16,13,22,21.70
2018,06,16,13,23,21.70
2018,06,16,13,24,21.80
2018,06,16,13,25,21.90
2018,06,16,13,26,22.00
2018,06,16,13,27,22.00
2018,06,16,13,28,22.10
2018,06,16,13,29,22.10
2018,06,16,13,30,22.20
2018,06,16,13,31,22.20
2018,06,16,13,32,22.20
2018,06,16,13,33,22.30
2018,06,16,13,34,22.30
2018,06,16,13,35,22.30
2018,06,16,13,36,22.30
2018,06,16,13,37,22.30
2018,06,16,13,38,22.30
2018,06,16,13,39,22.20
2018,06,16,13,40,22.20
2018,06,16,13,41,22.20
2018,06,16,13,42,22.20
2018,06,16,13,43,22.20
2018,06,16,13,44,22.20
2018,06,16,13,45,22.30
2018,06,16,13,46,22.30
2018,06,16,13,47,22.40
2018,06,16,13,48,22.40
2018,06,16,13,49,22.40
2018,06,16,13,50,22.50
2018,06,16,13,51,22.60
2018,06,16,13,52,22.60
2018,06,16,13,53,22.70
2018,06,16,13,54,22.60
2018,06,16,13,55,22.50
2018,06,16,13,56,22.50
2018,06,16,13,57,22.50
2018,06,16,13,58,22.40
2018,06,16,13,59,22.30
2018,06,16,14,00,22.40
2018,06,16,14,01,22.50
2018,06,16,14,02,22.50
2018,06,16,14,03,22.60
2018,06,16,14,04,22.50
2018,06,16,14,05,22.50
2018,06,16,14,06,22.50
2018,06,16,14,07,22.60
2018,06,16,14,08,22.70
2018,06,16,14,09,22.80
2018,06,16,14,10,22.90
2018,06,16,14,11,23.10
2018,06,16,14,12,23.20
2018,06,16,14,13,23.30
2018,06,16,14,14,23.30
2018,06,16,14,15,23.30
2018,06,16,14,16,23.30
2018,06,16,14,17,23.20
2018,06,16,14,18,23.10
2018,06,16,14,19,23.00
2018,06,16,14,20,22.90
2018,06,16,14,21,22.90
2018,06,16,14,22,22.80
2018,06,16,14,23,22.80
2018,06,16,14,24,22.70
2018,06,16,14,25,22.70
2018,06,16,14,26,22.60
2018,06,16,14,27,22.60
2018,06,16,14,28,22.60
2018,06,16,14,29,22.60
2018,06,16,14,30,22.60
2018,06,16,14,31,22.60
2018,06,16,14,32,22.70
2018,06,16,14,33,22.80
2018,06,16,14,34,22.90
2018,06,16,14,35,22.90
2018,06,16,14,36,22.90
2018,06,16,14,37,22.90
2018,06,16,14,38,22.90
2018,06,16,14,39,22.90
2018,06,16,14,40,22.90
2018,06,16,14,41,23.00
2018,06,16,14,42,23.10
2018,06,16,14,43,23.10
2018,06,16,14,44,23.20
2018,06,16,14,45,23.30
2018,06,16,14,46,23.30
2018,06,16,14,47,23.20
2018,06,16,14,48,23.20
2018,06,16,14,49,23.10
2018,06,16,14,50,23.00
2018,06,16,14,51,22.90
2018,06,16,14,52,22.90
2018,06,16,14,53,22.80
2018,06,16,14,54,22.80
2018,06,16,14,55,22.70
2018,06,16,14,56,22.70
2018,06,16,14,57,22.70
2018,06,16,14,58,22.70
2018,06,16,14,59,22.70
2018,06,16,15,00,22.70
2018,06,16,15,01,22.60
2018,06,16,15,02,22.60
2018,06,16,15,03,22.70
2018,06,16,15,04,22.80
2018,06,16,15,05,22.90
2018,06,16,15,06,22.90
2018,06,16,15,07,23.10
2018,06,16,15,08,23.10
2018,06,16,15,09,23.20
2018,06,16,15,10,23.30
2018,06,16,15,11,23.30
2018,06,16,15,12,23.40
2018,06,16,15,13,23.50
2018,06,16,15,14,23.60
2018,06,16,15,15,23.70
2018,06,16,15,16,23.70
2018,06,16,15,17,23.70
2018,06,16,15,18,23.70
2018,06,16,15,19,23.80
2018,06,16,15,20,23.80
2018,06,16,15,21,23.80
2018,06,16,15,22,23.80
2018,06,16,15,23,23.70
2018,06,16,15,24,23.70
2018,06,16,15,25,23.70
2018,06,16,15,26,23.80
2018,06,16,15,27,23.90
2018,06,16,15,28,23.90
2018,06,16,15,29,24.00
2018,06,16,15,30,24.10
2018,06,16,15,31,24.20
2018,06,16,15,32,24.30
2018,06,16,15,33,24.40
2018,06,16,15,34,24.40
2018,06,16,15,35,24.50
2018,06,16,15,36,24.60
2018,06,16,15,37,24.70
2018,06,16,15,38,24.80
2018,06,16,15,39,24.80
2018,06,16,15,40,24.80
2018,06,16,15,41,24.80
2018,06,16,15,42,24.80
2018,06,16,15,43,24.80
2018,06,16,15,44,24.70
2018,06,16,15,45,24.60
2018,06,16,15,46,24.60
2018,06,16,15,47,24.50
2018,06,16,15,48,24.40
2018,06,16,15,49,24.40
2018,06,16,15,50,24.30
2018,06,16,15,51,24.40
2018,06,16,15,52,24.40
2018,06,16,15,53,24.40
2018,06,16,15,54,24.40
2018,06,16,15,55,24.40
2018,06,16,15,56,24.40
2018,06,16,15,57,24.40
2018,06,16,15,58,24.40
2018,06,16,15,59,24.40
2018,06,16,16,00,24.40
2018,06,16,16,01,24.50
2018,06,16,16,02,24.50
2018,06,16,16,03,24.60
2018,06,16,16,04,24.70
2018,06,16,16,05,24.70
2018,06,16,16,06,24.70
2018,06,16,16,07,24.70
2018,06,16,16,08,24.80
2018,06,16,16,09,24.80
2018,06,16,16,10,24.70
2018,06,16,16,11,24.70
2018,06,16,16,12,24.80
2018,06,16,16,13,24.80
2018,06,16,16,14,24.80
2018,06,16,16,15,24.80
2018,06,16,16,16,24.80
2018,06,16,16,17,24.80
2018,06,16,16,18,24.80
2018,06,16,16,19,24.90
2018,06,16,16,20,24.90
2018,06,16,16,21,25.00
2018,06,16,16,22,25.10
2018,06,16,16,23,25.20
2018,06,16,16,24,25.30
2018,06,16,16,25,25.30
2018,06,16,16,26,25.30
2018,06,16,16,27,25.30
2018,06,16,16,28,25.20
2018,06,16,16,29,25.20
2018,06,16,16,30,25.20
2018,06,16,16,31,25.30
2018,06,16,16,32,25.30
2018,06,16,16,33,25.40
2018,06,16,16,34,25.40
2018,06,16,16,35,25.50
2018,06,16,16,36,25.50
2018,06,16,16,37,25.60
2018,06,16,16,38,25.60
2018,06,16,16,39,25.60
2018,06,16,16,40,25.60
2018,06,16,16,41,25.60
2018,06,16,16,42,25.70
2018,06,16,16,43,25.80
2018,06,16,16,44,25.80
2018,06,16,16,45,25.80
2018,06,16,16,46,25.90
2018,06,16,16,47,25.90
2018,06,16,16,48,26.00
2018,06,16,16,49,26.00
2018,06,16,16,50,26.10
2018,06,16,16,51,26.00
2018,06,16,16,52,26.00
2018,06,16,16,53,26.00
2018,06,16,16,54,26.00
2018,06,16,16,55,26.00
2018,06,16,16,56,26.00
2018,06,16,16,57,26.10
2018,06,16,16,58,26.10
2018,06,16,16,59,26.10
2018,06,16,17,00,26.10
2018,06,16,17,01,26.10
2018,06,16,17,02,26.10
2018,06,16,17,03,26.10
2018,06,16,17,04,26.20
2018,06,16,17,05,26.20
2018,06,16,17,06,26.10
2018,06,16,17,07,25.90
2018,06,16,17,08,25.80
2018,06,16,17,09,25.70
2018,06,16,17,10,25.60
2018,06,16,17,11,25.50
2018,06,16,17,12,25.40
2018,06,16,17,13,25.40
2018,06,16,17,14,25.30
2018,06,16,17,15,25.40
2018,06,16,17,16,25.40
2018,06,16,17,17,25.50
2018,06,16,17,18,25.60
2018,06,16,17,19,25.60